Погода в Токме

Россия / Иркутская область     58°15′16″N   105°51′26″E
темп.,
°C
ветер,
м/с
пор.,
м/с
влажн.,
%
обл.,
%
осадки,
мм/ч
давл.,
гПа
погр.,
м
8 августа, пн
пн823:00+11з3109578 0.6 1005295
02:00+9з31096100 0.8 1006236
05:00+8з2296100 0.0 100745
08:00+12з268873 0.0 1008269
11:00+17сз365691 0.0 10081175
14:00+19сз374894 0.1 10072191
17:00+18сз466643 0.9 10081045
20:00+13св25815 1.3 1010139
9 августа, вт
вт923:00+8всв00925 0.0 101310
02:00+7зсз11935 0.0 101410
05:00+7юз119360 0.0 101410
08:00+11зюз1281100 0.0 1014140
11:00+17зюз115716 0.0 1012732
14:00+18сз225724 0.6 10111327
17:00+18с126760 1.3 1011781
20:00+14в118733 2.9 101116
10 августа, ср
ср1023:00+11в119285 0.3 101110
02:00+11вюв1192100 0.3 101111
05:00+11в1191100 0.0 101013
08:00+12вюв1390100 0.0 1010132
11:00+16юв237343 0.0 1009438
14:00+21в224568 0.0 10082072
17:00+17в2465100 0.0 100787
20:00+15в2972100 0.0 1007220
11 августа, чт
чт1123:00+13ююв117982 0.0 100818
02:00+12ю1187100 0.0 100810
05:00+12зюз1194100 0.9 100715
08:00+12ссв1193100 2.5 1007111
11:00+12всв1195100 0.9 1008136
14:00+15ююз118072 1.0 1007313
17:00+18сз225814 0.3 1007981
20:00+14ссз1183100 0.4 100712
12 августа, пт
пт1223:00+11з119294 0.0 100910
02:00+10зюз11935 0.0 100910
05:00+9зюз11945 0.0 100910
08:00+13юз128296 0.0 1009172
11:00+18юз236499 0.2 1008757
14:00+19зюз3468100 1.6 10071004
17:00+17ссз2385100 2.1 1007239
20:00+14с1192100 3.1 100717